Location: Antin
(43.3330°N, 0.2804°E)
Time: 04:59:42
(UTC+00:00)

Timation 2 Rocket - Pass Details

Date: 16 October 2021
Orbit: 904 x 1077 km, 70.0° (Epoch: 02 December)

Event Time Altitude Azimuth Distance (km) Brightness Sun altitude
Rises 17:47:42 0° 334° (NNW) 3,882 7.4 -6.9°
Reaches altitude 10° 17:50:22 10° 336° (NNW) 2,922 6.7 -7.4°
Maximum altitude 17:57:17 76° 62° (ENE) 1,099 4.2 -8.6°
Drops below altitude 10° 18:04:00 10° 149° (SSE) 2,842 6.2 -9.8°
Sets 18:06:34 0° 150° (SSE) 3,769 6.8 -10.3°
